Temperature
20 20 20 20 20 20 20 20 20 20 20 19 19 19 19 19 19 19 19 19 19 19 19 19 19 19 19 18 18 18 18 18 18 18 18 18 18 18 18 18 18 18 18
20 20 20 20 20 20 20 20 20 20 19 19 19 19 19 19 19 19 19 19 19 19 19 19 19 19 19 19 18 18 18 18 18 18 18 18 18 18 18 18 18 18 18
20 20 20 20 20 20 20 20 20 20 19 19 19 19 19 19 19 19 19 19 19 19 19 19 19 19 18 18 18 18 18 18 18 18 18 18 18 18 18 18 18 18 18
21 20 20 20 20 20 20 20 20 19 19 19 19 19 19 19 19 19 19 19 19 19 19 19 19 19 18 18 18 18 18 18 18 18 18 18 18 18 18 18 18 18 18
21 20 20 20 20 20 20 20 20 19 19 19 19 19 19 19 19 19 19 19 19 19 19 19 19 19 18 18 18 18 18 18 18 18 18 18 18 18 18 18 18 18 18
21 20 20 20 20 20 20 20 20 20 19 19 19 19 19 19 19 19 19 19 19 19 19 19 19 18 18 18 18 18 18 18 18 18 18 18 18 18 18 18 18 18 18
21 20 20 20 20 20 20 19 20 20 19 19 19 19 19 19 19 19 19 19 19 19 19 19 18 18 18 18 18 18 18 18 18 18 18 18 18 18 18 18 18 18 18
21 20 20 20 20 20 20 19 19 19 19 19 19 19 19 19 19 19 19 19 19 19 19 19 19 18 18 18 18 18 18 18 18 18 18 18 18 18 18 18 18 18 18
21 20 20 20 20 20 20 20 19 19 19 19 19 19 19 19 19 19 19 19 19 19 19 19 19 18 18 18 18 18 18 18 18 18 18 18 18 18 18 18 17 18 18
21 20 20 20 20 20 20 20 19 19 19 19 19 19 19 19 19 19 19 19 19 19 19 19 19 18 18 18 18 18 18 18 18 18 18 18 18 18 18 18 18 18 18
20 20 20 20 20 20 19 19 19 19 19 19 19 19 19 19 19 19 19 18 19 19 19 19 19 18 18 18 18 18 18 18 18 18 18 18 18 18 18 18 18 18 18
20 20 20 20 20 20 19 19 19 19 19 19 19 19 19 19 19 19 19 18 19 19 19 19 19 18 18 18 18 18 18 18 18 18 18 18 18 18 18 18 18 18 18
20 20 20 20 20 20 20 19 19 19 19 19 19 19 19 19 19 19 18 18 18 18 19 19 19 19 19 18 18 18 18 18 18 18 18 18 18 18 18 18 18 17 17
20 20 20 20 20 20 20 20 19 19 19 19 19 19 19 19 19 18 18 18 18 18 18 18 18 19 19 19 18 18 18 18 18 18 18 18 18 18 18 18 18 18 18
20 20 20 20 20 20 20 20 19 19 19 19 19 19 19 19 19 19 19 18 18 18 18 18 18 18 18 18 18 18 18 18 18 18 18 18 18 18 18 18 18 18 18
20 20 20 20 20 20 20 20 20 19 19 19 19 19 19 19 19 19 19 18 18 18 18 18 18 18 18 18 18 18 18 18 18 18 18 18 18 18 18 18 18 17 17
21 20 20 20 20 20 20 19 19 19 19 19 19 19 19 19 19 18 18 18 18 18 18 18 18 18 18 18 18 18 18 18 18 18 18 18 18 18 18 18 18 17 17
21 20 20 20 20 19 19 19 19 19 19 19 19 19 19 19 18 18 18 18 18 18 18 18 18 18 18 18 18 18 18 18 18 18 18 18 18 18 18 18 18 17 17
21 20 20 20 20 20 19 19 19 19 19 19 19 19 18 18 18 18 18 18 18 18 18 18 18 18 18 18 18 18 18 18 18 18 18 18 18 18 18 18 17 17 17
21 20 20 20 20 20 19 19 19 19 19 19 19 18 18 18 18 18 18 18 18 18 18 18 18 18 18 18 18 18 18 18 18 18 18 17 17 17 17 17 17 17 17
20 20 20 20 20 19 19 19 19 19 18 18 18 18 18 18 18 18 18 18 18 18 18 18 18 18 18 18 18 17 17 17 17 17 17 17 17 17 17 17 17 17 17
20 20 20 20 20 19 19 19 19 19 18 18 18 18 18 18 18 18 18 18 18 18 18 18 18 18 18 18 17 17 17 17 17 17 17 17 17 17 17 17 17 17 17
20 20 20 20 20 19 19 19 19 18 18 18 18 18 18 18 18 18 17 17 17 17 17 17 17 17 17 18 17 17 17 17 17 17 17 17 17 17 17 17 17 17 17
21 20 20 20 20 19 19 19 19 19 18 18 18 18 18 18 18 17 17 17 17 17 17 17 17 17 17 17 17 17 17 17 17 17 17 17 17 17 17 17 17 17 17
21 21 20 20 20 19 19 19 19 18 18 18 18 18 17 17 17 17 17 17 17 17 17 17 17 17 17 17 17 17 17 17 17 16 16 17 17 17 17 17 17 17 17
21 20 20 20 19 19 19 19 19 18 18 18 18 17 17 17 17 17 17 17 17 17 17 16 16 16 16 16 16 16 16 16 16 16 16 16 16 17 17 17 17 16 16
Wind_Speed
3 5 9 9 10 10 10 11 12 12 13 13 13 13 13 13 13 13 14 13 13 13 13 12 12 12 12 12 13 13 13 13 13 13 13 13 13 13 12 12 11 11 13
7 7 9 9 10 10 11 11 12 12 12 12 12 12 12 12 12 12 12 13 12 12 12 12 12 11 11 12 12 12 12 12 12 12 12 12 12 12 12 12 11 10 13
9 8 9 9 10 10 10 11 12 12 12 12 12 12 12 11 12 11 11 11 11 11 11 11 11 11 11 11 11 11 11 11 11 10 10 8 10 12 12 12 12 12 13
10 8 9 10 10 10 10 11 12 12 12 12 12 11 11 11 11 10 10 10 10 10 10 11 11 11 11 11 11 10 10 10 10 9 7 7 8 11 12 12 13 12 12
8 8 9 10 10 11 11 11 12 12 12 12 11 11 10 10 10 10 9 9 9 9 9 10 10 10 10 10 10 10 10 10 10 8 6 7 7 10 12 13 14 13 13
8 8 9 10 10 10 12 11 12 12 12 11 10 10 9 9 9 8 8 8 8 8 9 9 9 9 9 9 9 9 9 9 9 7 7 7 7 10 12 13 14 14 14
8 7 9 11 11 12 13 13 12 12 11 10 9 8 8 8 8 7 6 6 7 7 8 9 9 9 9 9 9 8 8 9 8 7 7 7 8 10 12 13 14 14 14
9 7 9 11 12 12 13 12 12 11 10 10 9 8 7 7 7 6 5 5 5 6 8 9 9 10 10 10 10 9 9 9 8 8 7 8 10 12 13 14 14 14 14
9 7 6 7 9 11 11 11 10 10 10 9 8 7 6 6 5 5 4 4 4 5 6 8 9 10 10 10 10 9 9 10 7 6 7 7 10 12 13 14 13 14 14
7 6 5 4 6 7 8 9 9 9 8 8 7 7 6 5 4 4 4 3 3 4 5 6 7 8 9 9 9 9 9 9 6 6 7 8 11 11 12 13 13 12 13
7 5 4 4 4 5 6 7 7 7 7 6 5 5 5 3 2 3 4 3 3 4 5 5 6 7 7 8 9 8 8 6 6 6 7 9 11 11 12 12 12 12 12
7 5 4 4 3 4 4 4 4 4 4 4 3 3 3 2 2 3 3 3 2 3 4 4 5 5 5 4 6 6 5 5 6 6 7 10 11 12 11 12 12 13 13
8 7 5 5 4 4 2 4 3 3 3 2 3 3 3 2 1 1 1 1 1 1 1 1 1 2 3 3 3 3 5 6 5 6 7 10 11 12 12 12 12 12 12
8 7 5 5 5 4 4 3 3 2 2 2 2 3 3 2 1 1 1 1 1 1 1 1 1 1 2 2 3 3 4 5 5 6 7 9 10 12 13 13 13 12 12
7 6 6 5 5 4 4 3 3 2 2 3 3 3 3 2 1 1 1 1 0 1 1 1 1 1 1 1 2 4 5 6 6 6 6 9 10 10 11 12 12 12 13
7 6 5 6 5 4 4 3 2 2 2 3 3 3 4 3 2 1 1 1 0 1 1 1 1 1 1 1 1 3 5 5 5 6 6 7 8 8 8 10 11 11 11
7 5 5 6 5 5 4 3 3 2 3 3 2 3 3 3 2 2 1 1 0 0 1 1 1 1 1 0 1 2 3 4 5 5 5 5 6 7 8 9 10 10 11
6 6 5 6 5 4 3 3 2 3 3 3 2 2 2 3 3 2 2 1 0 1 1 1 1 1 1 1 1 1 2 3 4 4 4 5 5 6 7 9 9 9 10
6 6 5 5 5 4 3 3 3 3 3 3 3 2 2 2 3 2 1 1 1 1 1 1 1 1 1 0 1 1 2 2 3 3 3 5 6 6 7 8 9 9 10
7 5 5 5 4 4 3 3 3 3 2 2 2 2 3 2 3 2 1 1 2 2 2 1 1 1 1 1 0 0 1 2 2 2 3 4 5 6 7 7 7 8 10
6 5 4 5 3 3 2 2 2 1 1 1 1 2 2 2 3 3 2 2 2 2 1 1 1 1 1 1 2 2 2 1 1 2 2 2 3 5 6 6 6 6 6
7 5 5 4 4 3 3 2 2 2 1 1 1 2 2 2 2 2 2 2 2 2 2 2 1 1 1 1 2 1 2 3 2 1 1 2 3 3 4 5 5 6 6
7 7 6 5 4 4 3 3 3 2 2 2 1 1 1 2 3 3 2 2 2 2 1 1 1 2 0 1 1 3 2 2 2 3 2 2 2 3 3 4 5 6 7
9 7 6 5 5 4 4 4 4 3 2 1 1 1 1 2 2 2 2 2 2 2 1 1 1 1 2 0 1 0 2 3 2 2 3 2 2 3 4 4 4 6 7
8 7 6 5 4 4 4 4 4 3 2 1 1 2 1 1 1 1 2 1 2 1 1 1 1 2 1 1 0 1 0 0 1 2 2 3 3 2 3 4 3 4 7
7 7 6 6 4 4 4 4 4 4 3 3 2 2 0 0 1 1 1 1 1 1 1 1 1 1 1 1 1 1 1 0 1 1 2 3 3 3 3 3 4 4 6
Wind_Direction
161 164 141 130 123 119 115 117 113 111 115 119 123 122 122 124 127 128 134 140 142 144 144 144 144 144 142 141 142 145 147 148 151 151 152 154 157 157 154 153 153 150 151
156 152 136 130 126 122 121 121 120 118 116 118 122 126 126 128 132 132 134 138 141 144 148 148 149 149 148 146 147 150 152 153 155 157 159 163 165 164 163 164 159 156 157
143 144 135 129 127 125 123 124 126 124 121 120 122 125 128 132 135 136 137 140 145 148 152 155 156 157 155 153 153 155 157 158 158 158 159 162 170 174 173 173 168 164 161
139 140 130 127 127 126 125 126 129 129 125 122 122 125 130 135 138 140 142 144 149 152 156 159 160 162 161 160 161 163 164 165 165 165 162 165 172 178 182 179 176 171 166
130 134 132 123 128 131 130 129 132 129 128 125 124 124 129 133 140 145 148 151 155 160 162 163 164 165 167 170 173 175 176 177 178 176 171 177 182 186 188 185 181 178 174
130 137 136 125 127 136 138 132 133 131 130 129 127 128 131 134 138 146 154 159 163 166 168 170 172 172 173 177 180 182 186 184 183 177 179 183 188 193 193 188 185 184 181
135 141 141 128 120 128 134 134 132 131 131 130 130 131 133 135 137 144 152 160 166 172 176 178 181 181 178 179 185 188 191 190 185 178 183 191 193 195 196 193 191 188 187
138 140 143 135 127 125 130 135 137 136 134 132 130 131 134 137 140 146 150 152 164 179 188 189 190 189 186 188 191 194 194 191 185 184 187 198 198 198 199 197 195 192 191
135 134 136 146 140 136 137 139 143 142 140 137 138 139 141 145 150 156 154 163 178 190 191 193 196 197 193 192 194 197 193 191 187 184 192 195 196 198 198 197 197 195 193
129 135 136 142 144 147 149 146 148 149 146 143 145 150 154 154 156 158 165 180 196 186 186 190 191 193 194 194 197 199 199 197 194 192 195 197 196 197 196 195 195 192 193
128 137 138 136 144 153 157 157 157 156 152 150 150 151 158 163 167 173 183 198 203 185 181 181 183 186 195 199 200 200 201 197 190 194 198 201 196 196 195 194 193 190 191
143 150 145 145 144 149 159 153 159 152 151 152 144 138 132 138 167 172 190 206 198 171 163 167 177 189 194 193 201 199 187 182 188 194 203 202 200 198 198 197 196 194 195
149 144 146 148 142 139 125 125 127 130 136 136 136 134 119 103 104 106 149 200 209 181 169 180 187 183 180 185 193 171 160 169 181 194 204 202 201 201 200 196 200 201 200
143 145 143 137 128 124 114 120 124 123 127 122 135 136 121 98 74 78 109 150 171 170 154 173 157 166 178 193 177 153 155 161 178 191 199 199 195 198 198 198 200 203 202
141 146 149 139 129 123 110 116 114 112 120 123 115 118 117 112 104 93 91 128 188 176 169 148 138 139 167 199 179 157 166 172 182 187 197 200 199 199 201 203 202 203 205
146 149 142 134 130 121 116 113 116 119 112 106 105 111 120 116 106 98 80 55 338 222 204 165 162 152 155 171 165 164 168 172 178 179 185 192 196 198 198 197 196 196 198
142 139 139 136 126 125 129 133 126 126 113 108 114 107 113 108 115 119 104 63 307 202 156 133 114 97 103 135 165 167 166 168 175 180 178 178 188 196 198 199 199 200 199
130 129 130 133 124 126 126 132 128 119 119 117 113 101 99 100 112 117 101 72 342 70 83 108 104 104 82 100 159 185 167 173 175 177 177 183 188 198 202 202 201 204 205
132 134 127 120 127 126 113 108 106 102 115 114 103 92 82 78 89 98 94 65 64 72 65 104 94 119 121 143 184 170 170 179 183 181 184 194 196 197 202 207 208 210 211
131 129 130 121 119 116 102 91 81 76 84 96 98 88 84 78 76 79 83 43 67 71 56 48 77 80 129 180 190 91 169 180 174 191 197 197 200 201 200 207 209 215 218
129 124 134 127 126 117 109 112 108 110 105 85 87 89 92 91 85 76 67 54 67 83 90 79 93 80 40 83 77 24 360 1 180 198 199 191 205 203 189 193 201 208 215
150 147 144 144 142 138 147 150 140 137 131 129 67 63 70 77 79 85 83 78 72 83 66 53 67 87 32 71 116 101 5 346 332 266 205 195 207 196 192 197 194 200 206
163 165 162 163 153 154 142 113 98 72 57 59 50 61 61 80 83 76 93 99 88 97 94 67 76 114 146 338 116 140 150 227 296 314 272 231 202 195 207 203 200 200 202
176 172 163 162 157 155 143 132 133 136 144 178 157 121 57 64 73 74 89 96 96 94 90 65 71 87 121 303 307 306 168 164 171 291 315 292 236 210 211 213 211 207 206
174 170 165 155 149 147 142 146 147 147 161 138 112 99 56 24 45 68 81 89 90 99 115 71 61 80 102 125 136 301 341 36 129 170 274 309 308 260 223 208 204 209 207
165 163 160 152 154 153 145 142 149 148 143 125 124 131 117 13 356 3 83 83 97 99 115 122 104 97 97 103 91 80 114 145 233 184 228 264 278 280 256 217 212 216 212
Height
1503 1502 1502 1501 1500 1499 1499 1499 1499 1499 1500 1501 1502 1503 1505 1506 1508 1509 1510 1511 1513 1514 1516 1517 1519 1520 1521 1522 1524 1526 1528 1529 1531 1532 1534 1535 1537 1538 1540 1541 1542 1543 1544
1503 1502 1502 1501 1500 1499 1499 1500 1500 1500 1501 1502 1503 1504 1505 1506 1508 1509 1510 1511 1513 1514 1516 1517 1518 1520 1521 1523 1525 1526 1528 1529 1531 1532 1533 1535 1536 1538 1540 1541 1542 1543 1545
1503 1502 1502 1501 1500 1499 1499 1500 1501 1501 1502 1503 1503 1504 1506 1507 1508 1510 1511 1512 1513 1514 1516 1517 1518 1520 1521 1523 1524 1526 1528 1529 1531 1532 1533 1534 1536 1538 1539 1541 1542 1543 1544
1503 1503 1502 1501 1500 1499 1499 1500 1501 1502 1503 1504 1505 1505 1507 1508 1509 1510 1511 1512 1513 1514 1515 1516 1518 1519 1521 1522 1524 1526 1527 1529 1530 1532 1533 1534 1536 1537 1539 1540 1541 1543 1544
1504 1504 1503 1501 1500 1499 1500 1501 1502 1503 1504 1505 1506 1507 1508 1508 1509 1510 1511 1512 1513 1514 1515 1516 1517 1518 1520 1522 1523 1525 1527 1528 1530 1531 1533 1534 1535 1536 1538 1539 1541 1542 1543
1505 1505 1504 1502 1499 1496 1499 1501 1503 1504 1505 1506 1507 1507 1508 1509 1510 1511 1511 1512 1512 1513 1514 1515 1516 1518 1519 1521 1523 1524 1526 1528 1529 1531 1532 1533 1535 1536 1537 1538 1540 1541 1542
1506 1506 1505 1503 1499 1494 1498 1502 1504 1505 1506 1507 1508 1508 1509 1510 1510 1511 1511 1511 1512 1512 1513 1514 1515 1516 1518 1520 1522 1524 1525 1527 1528 1530 1531 1533 1534 1535 1536 1537 1539 1540 1541
1507 1507 1506 1506 1504 1502 1503 1505 1507 1507 1508 1509 1509 1510 1510 1510 1511 1511 1511 1511 1510 1510 1510 1511 1513 1515 1517 1519 1521 1523 1524 1526 1527 1528 1530 1531 1533 1534 1535 1536 1537 1538 1540
1508 1508 1508 1508 1507 1507 1507 1508 1509 1509 1510 1510 1511 1511 1511 1511 1511 1511 1511 1510 1508 1506 1506 1507 1509 1512 1515 1518 1520 1522 1524 1525 1527 1528 1529 1530 1531 1532 1533 1535 1536 1537 1538
1509 1510 1509 1509 1509 1509 1510 1510 1511 1511 1511 1512 1512 1512 1512 1512 1512 1512 1511 1510 1507 1505 1505 1505 1507 1511 1514 1518 1520 1521 1523 1525 1526 1527 1528 1529 1530 1531 1532 1533 1535 1536 1537
1511 1511 1511 1511 1511 1511 1512 1512 1513 1513 1513 1513 1514 1514 1514 1513 1513 1513 1512 1510 1507 1506 1506 1506 1508 1511 1515 1518 1520 1521 1523 1524 1525 1526 1527 1528 1529 1530 1531 1532 1533 1534 1535
1511 1512 1512 1512 1512 1513 1513 1513 1514 1514 1514 1515 1515 1515 1515 1514 1514 1513 1513 1511 1510 1509 1509 1509 1511 1513 1516 1518 1520 1521 1522 1523 1524 1525 1526 1527 1528 1528 1529 1530 1532 1533 1534
1512 1512 1512 1513 1513 1514 1514 1514 1515 1515 1515 1515 1516 1516 1516 1515 1515 1514 1514 1513 1512 1512 1512 1513 1514 1516 1517 1519 1520 1521 1521 1523 1524 1524 1525 1526 1526 1527 1528 1528 1530 1531 1532
1512 1513 1513 1513 1514 1514 1515 1515 1515 1516 1516 1516 1516 1517 1516 1516 1515 1515 1515 1515 1514 1514 1514 1515 1516 1517 1518 1519 1520 1520 1521 1522 1523 1524 1524 1524 1525 1525 1526 1527 1528 1529 1531
1512 1513 1514 1514 1515 1515 1515 1516 1516 1516 1517 1517 1517 1517 1517 1516 1516 1516 1516 1515 1515 1515 1515 1516 1516 1517 1518 1519 1520 1520 1521 1521 1522 1523 1523 1523 1523 1524 1524 1525 1527 1528 1529
1513 1514 1514 1515 1515 1516 1516 1517 1517 1517 1517 1517 1517 1517 1517 1517 1516 1516 1516 1516 1516 1516 1516 1516 1517 1517 1518 1519 1519 1520 1521 1521 1521 1522 1522 1522 1522 1523 1523 1524 1525 1526 1527
1513 1514 1515 1516 1516 1516 1517 1517 1517 1517 1517 1517 1517 1517 1517 1517 1516 1516 1516 1516 1516 1516 1516 1516 1517 1517 1518 1519 1519 1520 1520 1520 1521 1521 1521 1521 1521 1522 1522 1523 1524 1524 1525
1513 1514 1515 1516 1517 1517 1517 1517 1517 1517 1517 1517 1517 1517 1517 1517 1516 1516 1516 1516 1516 1516 1516 1516 1517 1517 1518 1518 1518 1519 1519 1519 1520 1520 1520 1520 1521 1521 1521 1522 1522 1523 1523
1513 1514 1515 1516 1516 1517 1517 1517 1518 1517 1517 1517 1517 1517 1516 1516 1516 1516 1516 1516 1516 1516 1516 1516 1516 1516 1517 1517 1517 1518 1518 1519 1519 1519 1519 1520 1520 1520 1520 1520 1521 1521 1522
1514 1514 1515 1515 1516 1517 1517 1517 1518 1518 1517 1517 1517 1516 1516 1516 1515 1515 1515 1515 1515 1515 1515 1515 1515 1516 1516 1516 1516 1517 1517 1517 1518 1518 1518 1518 1519 1519 1519 1519 1520 1520 1520
1514 1514 1515 1515 1516 1517 1517 1517 1517 1517 1517 1517 1517 1516 1516 1515 1515 1515 1515 1515 1515 1515 1515 1515 1515 1515 1515 1516 1516 1516 1516 1516 1517 1517 1517 1517 1517 1518 1518 1518 1518 1518 1518
1513 1514 1515 1516 1516 1517 1517 1518 1518 1518 1517 1517 1517 1516 1516 1516 1515 1515 1514 1514 1514 1514 1514 1514 1514 1514 1514 1515 1515 1515 1515 1516 1515 1515 1516 1516 1516 1516 1516 1516 1516 1516 1516
1512 1513 1515 1515 1516 1517 1517 1518 1518 1517 1517 1517 1516 1516 1516 1515 1515 1514 1514 1514 1513 1513 1513 1513 1513 1513 1513 1514 1514 1515 1514 1514 1514 1514 1514 1514 1514 1514 1514 1514 1515 1515 1514
1511 1513 1514 1515 1516 1516 1517 1517 1517 1517 1516 1517 1516 1516 1515 1515 1515 1514 1513 1513 1512 1512 1512 1512 1512 1512 1512 1512 1512 1513 1513 1513 1513 1512 1512 1512 1512 1512 1512 1512 1512 1512 1512
1511 1512 1514 1515 1516 1516 1516 1516 1516 1516 1516 1516 1516 1515 1515 1514 1514 1513 1513 1512 1511 1511 1511 1511 1511 1511 1511 1511 1511 1511 1511 1511 1511 1511 1510 1510 1510 1510 1510 1510 1510 1510 1510
1511 1512 1513 1514 1515 1515 1516 1516 1515 1515 1515 1515 1515 1514 1514 1513 1513 1512 1512 1511 1510 1510 1510 1510 1510 1510 1510 1510 1510 1510 1509 1509 1509 1509 1508 1508 1508 1508 1508 1508 1508 1508 1508